Weather in Tumanovo

Russia / Smolensk Oblast     55°25′08″N   34°38′46″E
temp.,
°C
wind,
m/s
gust,
m/s
humid.,
%
clouds,
%
prec.,
mm/h
press.,
hPa
HPBL,
m
13 may, thu
thu1300:00+10sse7129366 1.0 1016565
03:00+6se499713 1.0 1018258
06:00+6ese499431 0.0 1017273
09:00+11e6128195 0.0 1016607
12:00+14ese71273100 0.6 10151659
15:00+13se71177100 1.1 10141125
18:00+12sse598388 0.6 1013880
21:00+9sse389357 1.1 1013146
14 may, fri
fri1400:00+8sse489481 0.0 1014165
03:00+6sse36955 0.0 1015108
06:00+7sse499429 0.0 1016217
09:00+13sse587878 0.0 1015461
12:00+17sse6760100 0.0 10141219
15:00+19sse575672 0.1 10131435
18:00+16ese6983100 1.8 1011494
21:00+12e3697100 1.9 1009150
15 may, sat
sat1500:00+13se2498100 1.5 100991
03:00+11sse379713 1.6 1008147
06:00+12sse49965 0.0 1008236
09:00+17s587919 0.0 1008515
12:00+20s35617 0.0 10081276
15:00+20s5666100 1.6 10071220
18:00+18s477433 1.4 1006593
21:00+13ssw4109288 2.9 1007242
16 may, sun
sun1600:00+12s5109718 0.0 1008265
03:00+12ssw51097100 0.0 1009325
06:00+12ssw51097100 0.0 1010312
09:00+14sw579095 0.0 1011482
12:00+15sw5786100 0.8 1012627
15:00+16sw6780100 0.9 1012775
18:00+17sw467729 0.0 1012785
21:00+14sw35915 0.0 101372
17 may, mon
mon1700:00+12sw349346 0.0 101462
03:00+11sw2291100 0.0 101525
06:00+12sse2290100 0.0 101548
09:00+17se3474100 0.0 1015438
12:00+20se3460100 0.0 10141070
15:00+22ese4554100 0.0 10131323
18:00+21ese587058 0.0 1012627
21:00+17e51392100 1.7 1010313